Weather History for Corpus Christi NAS, TX

Change the Weather History Date:

Friday, July 26, 2013

  Actual Average Record
Temperature  
Mean Temperature 86 °F -  
Max Temperature 91 °F 89 °F 95 °F (2001)
Min Temperature 81 °F 76 °F 77 °F (2007)
Cooling Degree Days 20    
Growing Degree Days 36 (Base 50)    
Moisture  
Dew Point 78 °F    
Average Humidity 80    
Maximum Humidity 91    
Minimum Humidity 68    
Precipitation  
Precipitation 0.00 in - - ()
Sea Level Pressure  
Sea Level Pressure 29.98 in    
Wind  
Wind Speed 15 mph (South)    
Max Wind Speed 26 mph    
Max Gust Speed 32 mph    
Visibility 10 miles    
Events      
Averages and records for this station are not official NWS values.
T = Trace of Precipitation, MM = Missing Value Source: NWS Daily Summary

Daily Weather History Graph

Daily Weather History Graph

Search for Another Location

Airport:

Trip Planner

Search our weather history database for the weather conditions in past years. The results will help you decide how hot, cold, wet, or windy it might be!

Date:

Astronomy

Jul. 26, 2013 Rise Set
Actual Time 6:49 AM CDT 8:21 PM CDT
Civil Twilight 6:23 AM CDT 8:47 PM CDT
Nautical Twilight 5:53 AM CDT 9:17 PM CDT
Astronomical Twilight 5:21 AM CDT 9:49 PM CDT
Moon 11:08 PM CDT (7/26) 10:57 AM CDT (7/26)
Length of Visible Light 14h 23m
Length of Day
13h 32m
Waning Gibbous, 80% of the Moon is Illuminated
Jul 26
Waning Gibbous
Jul 29
Last Quarter
Aug 6
New
Aug 14
First Quarter
Aug 20
Full

Hourly Weather History & Observations

Time (CDT) Temp. Heat Index Dew Point Humidity Pressure Visibility Wind Dir Wind Speed Gust Speed Precip Events Conditions
12:56 AM 82.0 °F 91.0 °F 78.1 °F 88% 30.01 in 10.0 mi South 13.8 mph 20.7 mph N/A   Clear
1:56 AM 82.0 °F 90.2 °F 77.0 °F 85% 30.01 in 10.0 mi South 13.8 mph 20.7 mph N/A   Partly Cloudy
2:56 AM 82.0 °F 90.2 °F 77.0 °F 85% 30.01 in 10.0 mi South 10.4 mph 20.7 mph N/A   Scattered Clouds
3:56 AM 82.0 °F 90.2 °F 77.0 °F 85% 30.00 in 10.0 mi South 13.8 mph - N/A   Scattered Clouds
4:56 AM 81.0 °F 87.9 °F 77.0 °F 88% 29.99 in 10.0 mi South 11.5 mph 20.7 mph N/A   Scattered Clouds
5:56 AM 81.0 °F 87.9 °F 77.0 °F 88% 30.00 in 10.0 mi South 11.5 mph - N/A   Clear
6:56 AM 81.0 °F 88.6 °F 78.1 °F 91% 30.00 in 10.0 mi South 10.4 mph - N/A   Scattered Clouds
7:56 AM 82.0 °F 91.0 °F 78.1 °F 88% 30.00 in 10.0 mi South 11.5 mph - N/A   Scattered Clouds
8:56 AM 84.9 °F 95.3 °F 77.0 °F 77% 30.01 in 10.0 mi South 16.1 mph 23.0 mph N/A   Mostly Cloudy
9:07 AM 84.2 °F 94.1 °F 77.0 °F 79% 30.01 in 10.0 mi South 17.3 mph 24.2 mph N/A   Mostly Cloudy
9:24 AM 84.2 °F 96.1 °F 78.8 °F 84% 30.02 in 10.0 mi South 12.7 mph 23.0 mph N/A   Mostly Cloudy
9:56 AM 86.0 °F 96.9 °F 77.0 °F 74% 30.02 in 10.0 mi South 12.7 mph 23.0 mph N/A   Mostly Cloudy
10:56 AM 87.1 °F 99.8 °F 78.1 °F 74% 30.02 in 10.0 mi SSE 19.6 mph - N/A   Mostly Cloudy
11:56 AM 88.0 °F 101.3 °F 78.1 °F 72% 30.01 in 10.0 mi South 18.4 mph - N/A   Mostly Cloudy
12:56 PM 90.0 °F 104.5 °F 78.1 °F 68% 30.00 in 10.0 mi SSE 19.6 mph - N/A   Mostly Cloudy
1:56 PM 90.0 °F 105.8 °F 79.0 °F 70% 29.99 in 10.0 mi SSE 18.4 mph 25.3 mph N/A   Mostly Cloudy
2:56 PM 88.0 °F 101.3 °F 78.1 °F 72% 29.96 in 10.0 mi SSE 18.4 mph 24.2 mph N/A   Mostly Cloudy
3:56 PM 88.0 °F 100.2 °F 77.0 °F 70% 29.95 in 10.0 mi SSE 20.7 mph - N/A   Overcast
4:56 PM 87.1 °F 99.8 °F 78.1 °F 74% 29.94 in 10.0 mi SSE 19.6 mph 27.6 mph N/A   Overcast
5:56 PM 86.0 °F 98.3 °F 78.1 °F 77% 29.93 in 10.0 mi SSE 18.4 mph 28.8 mph N/A   Mostly Cloudy
6:56 PM 86.0 °F 96.9 °F 77.0 °F 74% 29.91 in 10.0 mi SSE 23.0 mph 31.1 mph N/A   Mostly Cloudy
7:56 PM 84.0 °F 93.7 °F 77.0 °F 79% 29.91 in 10.0 mi SSE 26.5 mph 32.2 mph N/A   Mostly Cloudy
8:56 PM 82.9 °F 91.8 °F 77.0 °F 82% 29.92 in 10.0 mi SSE 24.2 mph 31.1 mph N/A   Clear
9:56 PM 82.9 °F 91.8 °F 77.0 °F 82% 29.94 in 10.0 mi SSE 20.7 mph 27.6 mph N/A   Clear
10:56 PM 82.0 °F 90.2 °F 77.0 °F 85% 29.95 in 10.0 mi South 16.1 mph 25.3 mph N/A   Clear
11:56 PM 82.0 °F 90.2 °F 77.0 °F 85% 29.95 in 10.0 mi South 18.4 mph 28.8 mph N/A   Clear